TimeCST,TemperatureF,Dew PointF,Humidity,Sea Level PressureIn,VisibilityMPH,Wind Direction,Wind SpeedMPH,Gust SpeedMPH,PrecipitationIn,Events,Conditions,WindDirDegrees,DateUTC
12:56 AM,59.9,50.0,70,30.24,10.0,SSW,5.8,-,N/A,,Clear,200,2012-12-03 06:56:00
1:56 AM,57.9,50.0,75,30.25,10.0,Calm,Calm,-,N/A,,Clear,0,2012-12-03 07:56:00
2:56 AM,55.9,48.9,77,30.25,10.0,South,4.6,-,N/A,,Clear,190,2012-12-03 08:56:00
3:56 AM,56.8,50.0,78,30.25,10.0,South,5.8,-,N/A,,Scattered Clouds,190,2012-12-03 09:56:00
4:56 AM,54.9,50.0,84,30.25,10.0,Calm,Calm,-,N/A,,Clear,0,2012-12-03 10:56:00
5:56 AM,52.9,48.9,86,30.26,10.0,Calm,Calm,-,N/A,,Scattered Clouds,0,2012-12-03 11:56:00
6:56 AM,54.0,50.0,86,30.27,10.0,Calm,Calm,-,N/A,,Mostly Cloudy,0,2012-12-03 12:56:00
7:56 AM,57.9,52.0,81,30.27,10.0,SSW,5.8,-,N/A,,Overcast,200,2012-12-03 13:56:00
8:56 AM,63.9,52.9,67,30.28,10.0,South,9.2,-,N/A,,Clear,170,2012-12-03 14:56:00
9:56 AM,65.8,52.0,61,30.27,10.0,South,12.7,-,N/A,,Partly Cloudy,180,2012-12-03 15:56:00
10:56 AM,70.0,54.0,57,30.25,10.0,SW,13.8,-,N/A,,Partly Cloudy,230,2012-12-03 16:56:00
11:56 AM,70.9,54.0,55,30.22,10.0,South,11.5,-,N/A,,Clear,170,2012-12-03 17:56:00
12:56 PM,70.9,54.0,55,30.20,10.0,WSW,9.2,-,N/A,,Clear,240,2012-12-03 18:56:00
1:56 PM,72.0,52.9,51,30.18,10.0,SW,6.9,-,N/A,,Clear,230,2012-12-03 19:56:00
2:56 PM,72.0,52.9,51,30.18,10.0,WSW,5.8,-,N/A,,Scattered Clouds,240,2012-12-03 20:56:00
3:56 PM,68.0,52.0,56,30.18,10.0,South,6.9,-,N/A,,Mostly Cloudy,190,2012-12-03 21:56:00
4:56 PM,64.9,50.9,60,30.19,10.0,SSE,6.9,-,N/A,,Clear,150,2012-12-03 22:56:00
5:56 PM,63.9,50.0,61,30.21,10.0,South,8.1,-,N/A,,Clear,170,2012-12-03 23:56:00
6:56 PM,63.0,48.9,60,30.22,10.0,South,6.9,-,N/A,,Partly Cloudy,170,2012-12-04 00:56:00
7:56 PM,61.0,48.9,64,30.21,10.0,South,8.1,-,N/A,,Clear,170,2012-12-04 01:56:00
8:56 PM,59.0,47.8,66,30.20,10.0,SSE,6.9,-,N/A,,Clear,150,2012-12-04 02:56:00
9:56 PM,52.0,45.9,80,30.22,10.0,Calm,Calm,-,N/A,,Clear,0,2012-12-04 03:56:00
10:56 PM,57.9,47.8,69,30.22,10.0,SSW,3.5,-,N/A,,Clear,200,2012-12-04 04:56:00
11:56 PM,52.9,46.9,80,30.22,10.0,Calm,Calm,-,N/A,,Mostly Cloudy,0,2012-12-04 05:56:00